EW3281 Weather Reports


Display with metric or nautical units.
time (UTC)temp
F
wind
direction
speed
MPH
gust
MPH
rain 1hr
in
rain 24hr
in
rain mn
in
humidity
%
barometer
mb
20260905163049 72 342 0.0 0.0 0.00 0.00 0.00 73 1007.5
20260905162551 73 340 0.0 0.0 0.00 0.00 0.00 74 1007.5
20260905162047 73 338 0.0 0.0 0.00 0.00 0.00 72 1007.5
20260905161547 73 231 0.0 0.0 0.00 0.00 0.00 71 1007.5
20260905161048 74 251 0.0 0.0 0.00 0.00 0.00 69 1007.3
20260905160547 74 345 0.0 0.0 0.00 0.00 0.00 69 1007.3
20260905160050 74 215 0.0 0.0 0.00 0.00 0.00 71 1007.3
20260905155546 74 342 0.0 0.0 0.00 0.00 0.00 71 1007.3
20260905155046 73 333 0.0 0.0 0.00 0.00 0.00 71 1007.3
20260905154549 73 346 0.0 0.0 0.00 0.00 0.00 71 1007.3
20260905154043 73 160 0.0 0.0 0.00 0.00 0.00 76 1007.4
20260905153546 72 347 0.0 0.0 0.00 0.00 0.00 74 1007.4
20260905153041 72 342 0.0 0.0 0.00 0.00 0.00 74 1007.4
20260905152541 73 345 0.0 0.0 0.00 0.00 0.00 72 1007.3
20260905152041 73 342 0.0 0.0 0.00 0.00 0.00 72 1007.3
20260905151543 73 331 0.0 0.0 0.00 0.00 0.00 72 1007.2
20260905151040 73 335 0.0 0.0 0.00 0.00 0.00 73 1007.3
20260905150541 73 299 0.0 0.0 0.00 0.00 0.00 73 1007.2
20260905150047 73 336 0.0 0.0 0.00 0.00 0.00 73 1007.2
20260905145542 73 6 0.0 0.0 0.00 0.00 0.00 74 1007.2
20260905145040 72 340 0.0 0.0 0.00 0.00 0.00 75 1007.2
20260905144547 72 340 0.0 0.0 0.00 0.00 0.00 75 1007.2
20260905144044 72 4 0.0 0.0 0.00 0.00 0.00 76 1007.3
20260905143540 71 328 0.0 0.0 0.00 0.00 0.00 77 1007.3
20260905143049 71 203 0.0 0.0 0.00 0.00 0.00 77 1007.4
20260905142539 71 221 0.0 0.0 0.00 0.00 0.00 77 1007.4
20260905142041 70 203 0.0 0.0 0.00 0.00 0.00 76 1007.3
20260905141540 70 192 0.0 0.0 0.00 0.00 0.00 78 1007.4
20260905141041 70 181 0.0 0.0 0.00 0.00 0.00 78 1007.3
20260905140540 70 345 0.0 0.0 0.00 0.00 0.00 78 1007.3
20260905140038 70 5 0.0 0.0 0.00 0.00 0.00 79 1007.4
20260905135538 69 44 0.0 0.0 0.00 0.00 0.00 79 1007.5
20260905135041 69 3 0.0 0.0 0.00 0.00 0.00 79 1007.3
20260905134538 69 355 0.0 0.0 0.00 0.00 0.00 78 1007.3
20260905134039 69 8 0.0 0.0 0.00 0.00 0.00 80 1007.3
20260905133538 69 349 0.0 0.0 0.00 0.00 0.00 80 1007.3
20260905133039 69 333 0.0 0.0 0.00 0.00 0.00 81 1007.3
20260905132540 68 350 0.0 0.0 0.00 0.00 0.00 81 1007.4
20260905132043 68 148 0.0 0.0 0.00 0.00 0.00 82 1007.5
20260905131547 68 129 0.0 0.0 0.00 0.00 0.00 82 1007.5
20260905131037 68 321 0.0 0.0 0.00 0.00 0.00 83 1007.5
20260905130537 67 183 0.0 0.0 0.00 0.00 0.00 82 1007.4
20260905130036 67 318 0.0 0.0 0.00 0.00 0.00 83 1007.4
20260905125536 67 208 0.0 0.0 0.00 0.00 0.00 84 1007.3
20260905125036 66 342 0.0 0.0 0.00 0.00 0.00 85 1007.3
20260905124540 66 205 0.0 0.0 0.00 0.00 0.00 85 1007.3
20260905124039 66 351 0.0 0.0 0.00 0.00 0.00 86 1007.3
20260905123535 65 186 0.0 0.0 0.00 0.00 0.00 87 1007.2
20260905123035 65 329 0.0 0.0 0.00 0.00 0.00 89 1007.2
20260905122534 64 146 0.0 0.0 0.00 0.00 0.00 91 1007.2
20260905122035 64 143 0.0 0.0 0.00 0.00 0.00 92 1007.1
20260905121535 63 155 0.0 0.0 0.00 0.00 0.00 93 1007.1
20260905121034 63 170 0.0 0.0 0.00 0.00 0.00 94 1007.1
20260905120540 63 171 0.0 0.0 0.00 0.00 0.00 94 1006.9
20260905120034 62 171 0.0 0.0 0.00 0.00 0.00 95 1006.9
20260905115536 62 219 0.0 0.0 0.00 0.00 0.00 95 1007.0
20260905115034 62 219 0.0 0.0 0.00 0.00 0.00 95 1007.0
20260905114545 61 219 0.0 0.0 0.00 0.00 0.00 95 1007.0
20260905114040 61 219 0.0 0.0 0.00 0.00 0.00 95 1006.9
20260905113541 61 219 0.0 0.0 0.00 0.00 0.00 95 1006.9
20260905113040 61 219 0.0 0.0 0.00 0.00 0.00 95 1006.9
20260905112539 61 219 0.0 0.0 0.00 0.00 0.00 95 1006.9
20260905112039 60 219 0.0 0.0 0.00 0.00 0.00 95 1006.9
20260905111552 60 219 0.0 0.0 0.00 0.00 0.00 95 1006.9
20260905111039 60 219 0.0 0.0 0.00 0.00 0.00 95 1006.8
20260905110538 60 219 0.0 0.0 0.00 0.00 0.00 95 1006.8
20260905110038 60 219 0.0 0.0 0.00 0.00 0.00 95 1006.7
20260905105539 60 219 0.0 0.0 0.00 0.00 0.00 95 1006.7
20260905105039 60 219 0.0 0.0 0.00 0.00 0.00 95 1006.6
20260905104532 60 219 0.0 0.0 0.00 0.00 0.00 95 1006.6
20260905104032 60 219 0.0 0.0 0.00 0.00 0.00 95 1006.6
20260905103532 60 219 0.0 0.0 0.00 0.00 0.00 95 1006.5
20260905103032 60 219 0.0 0.0 0.00 0.00 0.00 95 1006.4
20260905102534 60 219 0.0 0.0 0.00 0.00 0.00 95 1006.4
20260905102031 60 219 0.0 0.0 0.00 0.00 0.00 94 1006.4
20260905101541 60 219 0.0 0.0 0.00 0.00 0.00 94 1006.3
20260905101029 60 219 0.0 0.0 0.00 0.00 0.00 94 1006.4
20260905100529 60 219 0.0 0.0 0.00 0.00 0.00 94 1006.4
20260905100029 60 219 0.0 0.0 0.00 0.00 0.00 94 1006.3
20260905095529 61 219 0.0 0.0 0.00 0.00 0.00 94 1006.3
20260905095028 61 219 0.0 0.0 0.00 0.00 0.00 94 1006.4
20260905094528 61 219 0.0 0.0 0.00 0.00 0.00 94 1006.4
20260905094030 61 219 0.0 0.0 0.00 0.00 0.00 94 1006.3
20260905093528 61 219 0.0 0.0 0.00 0.00 0.00 94 1006.3
20260905093028 61 219 0.0 0.0 0.00 0.00 0.00 94 1006.3
20260905092527 61 219 0.0 0.0 0.00 0.00 0.00 94 1006.2
20260905092027 61 219 0.0 0.0 0.00 0.00 0.00 94 1006.3
20260905091527 61 219 0.0 0.0 0.00 0.00 0.00 94 1006.2
20260905091027 61 219 0.0 0.0 0.00 0.00 0.00 94 1006.1
20260905090528 61 235 0.0 0.0 0.00 0.00 0.00 94 1006.2
20260905090026 61 235 0.0 0.0 0.00 0.00 0.00 94 1006.3
20260905085530 61 235 0.0 0.0 0.00 0.00 0.00 94 1006.2
20260905085029 61 235 0.0 0.0 0.00 0.00 0.00 94 1006.3
20260905084527 61 235 0.0 0.0 0.00 0.00 0.00 94 1006.3
20260905084026 61 235 0.0 0.0 0.00 0.00 0.00 94 1006.3
20260905083527 61 235 0.0 0.0 0.00 0.00 0.00 94 1006.3
20260905083034 61 235 0.0 0.0 0.00 0.00 0.00 94 1006.3
20260905082525 61 235 0.0 0.0 0.00 0.00 0.00 94 1006.3
20260905082030 61 235 0.0 0.0 0.00 0.00 0.00 94 1006.3
20260905081526 61 235 0.0 0.0 0.00 0.00 0.00 94 1006.3
20260905081024 61 235 0.0 0.0 0.00 0.00 0.00 94 1006.3
20260905080524 61 235 0.0 0.0 0.00 0.00 0.00 94 1006.2
20260905080034 61 235 0.0 0.0 0.00 0.00 0.00 94 1006.2
20260905075528 61 235 0.0 0.0 0.00 0.00 0.00 94 1006.2
20260905075025 62 235 0.0 0.0 0.00 0.00 0.00 94 1006.3
20260905074522 62 235 0.0 0.0 0.00 0.00 0.00 94 1006.3
20260905074026 62 235 0.0 0.0 0.00 0.00 0.00 94 1006.4
20260905073524 62 235 0.0 0.0 0.00 0.00 0.00 94 1006.4
20260905073025 62 235 0.0 0.0 0.00 0.00 0.00 94 1006.5
20260905072521 62 235 0.0 0.0 0.00 0.00 0.00 94 1006.4
20260905072021 62 235 0.0 0.0 0.00 0.00 0.00 94 1006.4
20260905071520 62 235 0.0 0.0 0.00 0.00 0.00 94 1006.4
20260905071020 62 235 0.0 0.0 0.00 0.00 0.00 94 1006.4
20260905070520 62 235 0.0 0.0 0.00 0.00 0.00 94 1006.4
20260905070020 62 235 0.0 0.0 0.00 0.00 0.00 94 1006.5
20260905065519 62 235 0.0 0.0 0.00 0.00 0.00 93 1006.6
20260905065024 62 235 0.0 0.0 0.00 0.00 0.00 93 1006.7
20260905064528 62 235 0.0 0.0 0.00 0.00 0.00 93 1006.7
20260905064020 62 235 0.0 0.0 0.00 0.00 0.00 93 1006.8
20260905063519 62 235 0.0 0.0 0.00 0.00 0.00 93 1006.8
20260905063020 62 235 0.0 0.0 0.00 0.00 0.00 93 1006.9
20260905062522 62 235 0.0 0.0 0.00 0.00 0.00 93 1006.9
20260905062019 62 235 0.0 0.0 0.00 0.00 0.00 93 1007.0
20260905061518 63 235 0.0 0.0 0.00 0.00 0.00 93 1007.0
20260905061017 63 235 0.0 0.0 0.00 0.00 0.00 93 1006.9
20260905060520 63 235 0.0 0.0 0.00 0.00 0.00 93 1007.0
20260905060030 63 235 0.0 0.0 0.00 0.00 0.00 93 1007.1
20260905055516 63 235 0.0 0.0 0.00 0.00 0.00 92 1007.0
20260905055017 63 235 0.0 0.0 0.00 0.00 0.00 92 1007.0
20260905054517 63 235 0.0 0.0 0.00 0.00 0.00 92 1007.0
20260905054017 63 235 0.0 0.0 0.00 0.00 0.00 92 1007.0
20260905053516 63 235 0.0 0.0 0.00 0.00 0.00 92 1007.1
20260905053028 63 235 0.0 0.0 0.00 0.00 0.00 92 1007.2
20260905052519 63 235 0.0 0.0 0.00 0.00 0.00 92 1007.2
20260905052015 63 235 0.0 0.0 0.00 0.00 0.00 91 1007.2
20260905051515 63 235 0.0 0.0 0.00 0.00 0.00 91 1007.1
20260905051014 64 235 0.0 0.0 0.00 0.00 0.00 91 1007.2
20260905050516 64 235 0.0 0.0 0.00 0.00 0.00 91 1007.1
20260905050014 64 235 0.0 0.0 0.00 0.00 0.00 91 1007.2
20260905045513 64 235 0.0 0.0 0.00 0.00 0.00 91 1007.2
20260905045013 64 235 0.0 0.0 0.00 0.00 0.00 90 1007.3
20260905044512 64 235 0.0 0.0 0.00 0.00 0.00 90 1007.3
20260905044012 64 235 0.0 0.0 0.00 0.00 0.00 90 1007.3
20260905043511 65 235 0.0 0.0 0.00 0.00 0.00 90 1007.3
20260905043011 65 235 0.0 0.0 0.00 0.00 0.00 90 1007.2
20260905042510 65 235 0.0 0.0 0.00 0.00 0.00 90 1007.1
20260905042009 65 235 0.0 0.0 0.00 0.00 0.00 89 1007.1
20260905041509 65 235 0.0 0.0 0.00 0.00 0.00 89 1007.2
20260905041008 65 235 0.0 0.0 0.00 0.00 0.00 89 1007.2
20260905040508 65 235 0.0 0.0 0.00 0.00 0.00 88 1007.3
20260905040016 65 235 0.0 0.0 0.00 0.00 0.00 88 1007.2
20260905035507 65 235 0.0 0.0 0.00 0.00 0.00 88 1007.2
20260905035006 66 235 0.0 0.0 0.00 0.00 0.00 87 1007.2
20260905034507 66 235 0.0 0.0 0.00 0.00 0.00 87 1007.2
20260905034005 66 235 0.0 0.0 0.00 0.00 0.00 87 1007.1
20260905033505 66 235 0.0 0.0 0.00 0.00 0.00 86 1007.1
20260905033004 67 235 0.0 0.0 0.00 0.00 0.00 86 1007.0
20260905032502 67 235 0.0 0.0 0.00 0.00 0.00 86 1007.0
20260905032005 67 235 0.0 0.0 0.00 0.00 0.00 85 1006.9
20260905031602 67 235 0.0 0.0 0.00 0.00 0.00 85 1007.0
20260905031100 68 235 0.0 0.0 0.00 0.00 0.00 84 1007.0
20260905030559 68 235 0.0 0.0 0.00 0.00 0.00 84 1006.9
20260905030121 68 235 0.0 0.0 0.00 0.00 0.00 83 1007.0
20260905025557 69 235 0.0 0.0 0.00 0.00 0.00 82 1007.0
20260905025056 69 235 0.0 0.0 0.00 0.00 0.00 82 1007.0
20260905024058 69 235 0.0 0.0 0.00 0.00 0.00 82 1006.8
20260905023601 69 235 0.0 0.0 0.00 0.00 0.00 83 1006.8
20260905023058 69 235 0.0 0.0 0.00 0.00 0.00 82 1006.8
20260905022557 69 235 0.0 0.0 0.00 0.00 0.00 82 1006.9
20260905022057 69 235 0.0 0.0 0.00 0.00 0.00 81 1006.9
20260905021557 69 235 0.0 0.0 0.00 0.00 0.00 81 1006.8
20260905021055 69 235 0.0 0.0 0.00 0.00 0.00 81 1006.9
20260905020558 70 235 0.0 0.0 0.00 0.00 0.00 79 1006.9
20260905020104 70 235 0.0 0.0 0.00 0.00 0.00 79 1007.0
20260905015553 70 235 0.0 0.0 0.00 0.00 0.00 78 1007.1
20260905015054 71 235 0.0 0.0 0.00 0.00 0.00 77 1007.1
20260905014051 71 235 0.0 0.0 0.00 0.00 0.00 77 1007.2
20260905013547 71 235 0.0 0.0 0.00 0.00 0.00 76 1007.2
20260905013046 72 235 0.0 0.0 0.00 0.00 0.00 76 1007.3
20260905012545 72 235 0.0 0.0 0.00 0.00 0.00 76 1007.3
20260905012045 71 235 0.0 0.0 0.00 0.00 0.00 76 1007.3
20260905011544 72 235 0.0 0.0 0.00 0.00 0.00 74 1007.3
20260905011042 72 235 0.0 0.0 0.00 0.00 0.00 74 1007.3
20260905010542 72 235 0.0 0.0 0.00 0.00 0.00 73 1007.3
20260905010040 72 235 0.0 0.0 0.00 0.00 0.00 73 1007.3
20260905005541 72 235 0.0 0.0 0.00 0.00 0.00 72 1007.3
20260905005039 73 235 0.0 0.0 0.00 0.00 0.00 71 1007.3
20260905004038 73 235 0.0 0.0 0.00 0.00 0.00 71 1007.3
20260905003537 73 235 0.0 0.0 0.00 0.00 0.00 70 1007.2
20260905003036 74 235 0.0 0.0 0.00 0.00 0.00 69 1007.1
20260905002536 74 235 0.0 0.0 0.00 0.00 0.00 68 1007.0
20260905002034 74 235 0.0 0.0 0.00 0.00 0.00 68 1007.0
20260905001534 74 238 0.0 0.0 0.00 0.00 0.00 68 1006.9
20260905001036 74 237 0.0 0.0 0.00 0.00 0.00 67 1006.9
20260905000534 74 238 0.0 0.0 0.00 0.00 0.00 67 1006.9
20260905000033 74 224 0.0 0.0 0.00 0.00 0.00 68 1006.8
20260904235531 75 224 0.0 0.0 0.00 0.00 0.00 67 1006.8
20260904235031 75 224 0.0 0.0 0.00 0.00 0.00 66 1006.7
20260904234033 75 224 0.0 0.0 0.00 0.00 0.00 64 1006.6
20260904233532 75 224 0.0 0.0 0.00 0.00 0.00 64 1006.6
20260904233038 75 221 0.0 0.0 0.00 0.00 0.00 66 1006.6
20260904232531 76 221 0.0 0.0 0.00 0.00 0.00 66 1006.6
20260904232029 76 221 0.0 0.0 0.00 0.00 0.00 65 1006.6
20260904231529 77 221 0.0 0.0 0.00 0.00 0.00 64 1006.5
20260904231026 77 221 0.0 0.0 0.00 0.00 0.00 64 1006.5
20260904230530 77 221 0.0 0.0 0.00 0.00 0.00 63 1006.5
20260904230024 78 221 0.0 0.0 0.00 0.00 0.00 62 1006.5
20260904225523 78 221 0.0 0.0 0.00 0.00 0.00 62 1006.4
20260904225022 79 221 0.0 0.0 0.00 0.00 0.00 59 1006.4
20260904224024 79 243 0.0 0.0 0.00 0.00 0.00 59 1006.4
20260904223521 79 224 0.0 0.0 0.00 0.00 0.00 58 1006.4
20260904223025 79 219 0.0 0.0 0.00 0.00 0.00 58 1006.3
20260904222522 80 96 0.0 0.0 0.00 0.00 0.00 58 1006.3
20260904222019 80 207 0.0 0.0 0.00 0.00 0.00 58 1006.3
20260904221518 80 149 0.0 0.0 0.00 0.00 0.00 57 1006.2
20260904221018 80 233 0.0 0.0 0.00 0.00 0.00 57 1006.2
20260904220517 81 226 0.0 0.0 0.00 0.00 0.00 56 1006.2
20260904220018 81 225 0.0 0.0 0.00 0.00 0.00 55 1006.2
20260904215515 81 236 0.0 0.0 0.00 0.00 0.00 54 1006.3
20260904215017 82 225 0.0 0.0 0.00 0.00 0.00 53 1006.2
20260904214014 82 34 0.0 0.0 0.00 0.00 0.00 53 1006.2
20260904213516 83 224 0.0 0.0 0.00 0.00 0.00 51 1006.3
20260904213024 84 228 0.0 0.0 0.00 0.00 0.00 50 1006.3
20260904212513 85 226 0.0 0.0 0.00 0.00 0.00 49 1006.2
20260904212012 85 217 0.0 0.0 0.00 0.00 0.00 48 1006.2
20260904211512 85 222 0.0 0.0 0.00 0.00 0.00 48 1006.1
20260904211014 85 248 0.0 0.0 0.00 0.00 0.00 47 1006.1
20260904210512 86 220 0.0 0.0 0.00 0.00 0.00 48 1006.1
20260904210023 85 200 0.0 0.0 0.00 0.00 0.00 48 1006.1
20260904205514 85 164 0.0 0.0 0.00 0.00 0.00 48 1006.1
20260904205011 86 209 0.0 2.0 0.00 0.00 0.00 47 1006.0
20260904204014 86 226 0.0 0.0 0.00 0.00 0.00 47 1006.1
20260904203514 86 245 0.0 0.0 0.00 0.00 0.00 45 1006.2
20260904203012 86 212 0.0 0.0 0.00 0.00 0.00 45 1006.2
20260904202510 86 226 0.0 0.0 0.00 0.00 0.00 45 1006.2
20260904202010 86 221 0.0 0.0 0.00 0.00 0.00 45 1006.3
20260904201511 87 227 0.0 0.0 0.00 0.00 0.00 46 1006.1
20260904201010 87 207 0.0 0.0 0.00 0.00 0.00 44 1006.1
20260904200513 87 165 0.0 0.0 0.00 0.00 0.00 45 1006.1
20260904200009 87 236 0.0 0.0 0.00 0.00 0.00 48 1006.1
20260904195512 86 189 0.0 0.0 0.00 0.00 0.00 50 1006.1
20260904195009 86 140 0.0 0.0 0.00 0.00 0.00 51 1006.1
20260904194009 86 338 0.0 0.0 0.00 0.00 0.00 52 1006.0
20260904193509 85 224 0.0 0.0 0.00 0.00 0.00 52 1006.1
20260904193009 85 226 0.0 0.0 0.00 0.00 0.00 52 1006.1
20260904192508 84 187 0.0 0.0 0.00 0.00 0.00 55 1006.2
20260904192007 84 212 0.0 0.0 0.00 0.00 0.00 54 1006.3
20260904191507 84 229 0.0 0.0 0.00 0.00 0.00 56 1006.3
20260904191007 84 17 0.0 0.0 0.00 0.00 0.00 60 1006.4
20260904190507 83 191 0.0 0.0 0.00 0.00 0.00 57 1006.4
20260904190006 84 188 0.0 0.0 0.00 0.00 0.00 55 1006.3
20260904185506 85 234 0.0 0.0 0.00 0.00 0.00 54 1006.3
20260904185006 85 209 0.0 0.0 0.00 0.00 0.00 53 1006.3
20260904184004 86 215 0.0 0.0 0.00 0.00 0.00 52 1006.2
20260904183503 86 176 0.0 0.0 0.00 0.00 0.00 53 1006.2
20260904183004 86 194 0.0 0.0 0.00 0.00 0.00 52 1006.2
20260904182502 86 200 0.0 0.0 0.00 0.00 0.00 51 1006.1
20260904182001 85 332 0.0 0.0 0.00 0.00 0.00 59 1006.2
20260904181600 85 202 0.0 0.0 0.00 0.00 0.00 54 1006.2
20260904181100 84 129 0.0 0.0 0.00 0.00 0.00 57 1006.2
20260904180603 83 103 0.0 0.0 0.00 0.00 0.00 61 1006.2
20260904180109 83 103 0.0 0.0 0.00 0.00 0.00 61 1006.2
20260904175559 83 349 0.0 1.0 0.00 0.00 0.00 58 1006.2
20260904175058 83 326 0.0 0.0 0.00 0.00 0.00 57 1006.3
20260904174058 84 181 0.0 0.0 0.00 0.00 0.00 59 1006.4
20260904173558 84 181 0.0 0.0 0.00 0.00 0.00 56 1006.4
20260904173105 84 153 0.0 0.0 0.00 0.00 0.00 59 1006.5
20260904172559 84 182 0.0 0.0 0.00 0.00 0.00 57 1006.6
20260904172059 84 181 0.0 0.0 0.00 0.00 0.00 57 1006.6
20260904171603 84 349 0.0 0.0 0.00 0.00 0.00 57 1006.6
20260904171057 83 327 0.0 0.0 0.00 0.00 0.00 59 1006.7
20260904170557 83 263 0.0 0.0 0.00 0.00 0.00 59 1006.6
20260904170057 83 170 0.0 0.0 0.00 0.00 0.00 59 1006.6
20260904165557 84 165 0.0 0.0 0.00 0.00 0.00 56 1006.7
20260904165057 84 354 0.0 0.0 0.00 0.00 0.00 58 1006.7
20260904164054 85 336 0.0 0.0 0.00 0.00 0.00 55 1006.6
20260904163553 85 176 0.0 0.0 0.00 0.00 0.00 56 1006.7